This demonstration page uses our WeatherBlox Daily Observations layout. Learn more.

Left ArrowRight Arrow

44.8408, -93.29828

Hourly Observations for June 27, 2017

Temp ( °F °C ) Dew Point ( °F °C ) Humidity (%) Winds ( mph kmh ) Pressure ( in mb ) Visibility ( mi km ) Precip ( " mm )
12:53 am 00:53 Clear 59 15 46 7.8 62 62 SSW 3 6 30.10 1019 10 16 0.00 0.00
1:53 am 01:53 Clear 58 14.4 47 8.3 67 67 Calm 30.10 1019 10 16 0.00 0.00
2:53 am 02:53 Clear 57 13.9 46 7.8 67 67 SSW 5 7 30.09 1019 10 16 0.00 0.00
3:53 am 03:53 Clear 56 13.3 46 7.8 70 70 SSW 3 6 30.09 1019 10 16 0.00 0.00
4:53 am 04:53 Clear 55 12.8 45 7.2 69 69 WSW 3 6 30.09 1019 10 16 0.00 0.00
5:53 am 05:53 Sunny 55 12.8 45 7.2 69 69 SSW 3 6 30.09 1019 10 16 0.00 0.00
6:53 am 06:53 Mostly Sunny 56 13.3 45 7.2 67 67 SW 6 9 30.09 1019 10 16 0.00 0.00
7:53 am 07:53 Mostly Sunny 62 16.7 45 7.2 54 54 WSW 6 9 30.10 1019 10 16 0.00 0.00
8:53 am 08:53 Mostly Sunny 66 18.9 44 6.7 45 45 WSW 8 13 30.09 1019 10 16 0.00 0.00
9:53 am 09:53 Partly Cloudy 68 20 43 6.1 40 40 SW 9 15 30.07 1018 10 16 0.00 0.00
10:53 am 10:53 Partly Cloudy 71 21.7 43 6.1 36 36 SSW 8 13 30.04 1017 10 16 0.00 0.00
11:53 am 11:53 Mostly Cloudy 72 22.2 42 5.6 34 34 S 10 17 30.02 1017 10 16 0.00 0.00
12:53 pm 12:53 Mostly Cloudy 73 22.8 41 5 32 32 SW 13 20 30.00 1016 10 16 0.00 0.00
1:53 pm 13:53 Mostly Cloudy 74 23.3 41 5 31 31 SSW 10 17 29.98 1015 10 16 0.00 0.00
2:53 pm 14:53 Mostly Cloudy 75 23.9 40 4.4 28 28 S 15 24 29.96 1014 10 16 0.00 0.00
3:53 pm 15:53 Cloudy 75 23.9 42 5.6 31 31 S 13 20 29.93 1013 10 16 0.00 0.00
4:53 pm 16:53 Cloudy 77 25 40 4.4 26 26 S 18 30 29.91 1013 10 16 0.00 0.00
5:53 pm 17:53 Mostly Cloudy 76 24.4 41 5 29 29 S 18 30 29.86 1011 10 16 0.00 0.00
6:53 pm 18:53 Mostly Cloudy 75 23.9 42 5.6 31 31 S 12 19 29.85 1011 10 16 0.00 0.00
7:53 pm 19:53 Mostly Cloudy 74 23.3 43 6.1 33 33 S 10 17 29.85 1011 10 16 0.00 0.00
8:53 pm 20:53 Mostly Cloudy 73 22.8 43 6.1 34 34 S 14 22 29.82 1010 10 16 0.00 0.00
9:53 pm 21:53 Mostly Cloudy 71 21.7 44 6.7 38 38 SSE 10 17 29.80 1009 10 16 0.00 0.00
10:53 pm 22:53 Cloudy 71 21.7 44 6.7 38 38 S 13 20 29.83 1010 10 16 0.00 0.00
11:53 pm 23:53 Cloudy 70 21.1 45 7.2 41 41 SSE 9 15 29.80 1009 10 16 0.00 0.00

Powered by AerisWeather